Time,TemperatureF,DewpointF,PressureIn,WindDirection,WindDirectionDegrees,WindSpeedMPH,WindSpeedGustMPH,Humidity,HourlyPrecipIn,Conditions,Clouds,dailyrainin,SoftwareType,DateUTC
2013-03-21 00:00:00,33.4,30.0,29.36,NNE,31,0.0,0.0,87,0.01,,BKN140,0.02,VWS V14.01,2013-03-21 06:00:00,
2013-03-21 00:05:00,33.1,29.9,29.36,NNE,31,0.0,0.0,88,0.00,,BKN140,0.00,VWS V14.01,2013-03-21 06:05:00,
2013-03-21 00:10:00,32.7,29.3,29.36,NNE,31,0.0,0.0,87,0.00,,BKN140,0.00,VWS V14.01,2013-03-21 06:10:00,
2013-03-21 00:15:00,32.5,29.4,29.34,NNE,31,0.0,0.0,88,0.00,,BKN140,0.00,VWS V14.01,2013-03-21 06:15:00,
2013-03-21 00:20:00,32.4,29.2,29.34,NNE,31,0.0,0.0,88,0.00,,BKN140,0.00,VWS V14.01,2013-03-21 06:20:00,
2013-03-21 00:25:00,32.2,29.3,29.34,NNE,31,0.0,0.0,89,0.00,,BKN140,0.00,VWS V14.01,2013-03-21 06:25:00,
2013-03-21 00:30:00,32.2,29.3,29.34,NNE,31,0.0,0.0,89,0.00,,BKN140,0.00,VWS V14.01,2013-03-21 06:30:00,
2013-03-21 00:35:00,32.2,29.3,29.34,NNE,31,0.0,0.0,89,0.00,,BKN140,0.00,VWS V14.01,2013-03-21 06:35:00,
2013-03-21 00:40:00,32.1,29.2,29.34,NNE,31,0.0,0.0,89,0.00,,BKN120,0.00,VWS V14.01,2013-03-21 06:40:00,
2013-03-21 00:45:00,31.9,29.0,29.35,NNE,31,0.0,0.0,89,0.00,,BKN120,0.00,VWS V14.01,2013-03-21 06:45:00,
2013-03-21 00:50:00,31.9,29.0,29.35,NNE,31,0.0,0.0,89,0.00,,BKN120,0.00,VWS V14.01,2013-03-21 06:50:00,
2013-03-21 00:55:00,31.9,29.3,29.35,NNE,31,0.0,0.0,90,0.00,,BKN120,0.00,VWS V14.01,2013-03-21 06:55:00,
2013-03-21 01:00:00,32.4,29.2,29.36,NW,304,0.0,0.0,88,0.00,,BKN120,0.00,VWS V14.01,2013-03-21 07:00:00,
2013-03-21 01:05:00,32.9,28.6,29.36,NW,309,1.0,1.0,84,0.00,,BKN120,0.00,VWS V14.01,2013-03-21 07:05:00,
2013-03-21 01:10:00,34.1,30.1,29.36,NW,305,1.0,2.0,85,0.00,,BKN120,0.00,VWS V14.01,2013-03-21 07:10:00,
2013-03-21 01:15:00,34.4,30.4,29.37,NW,311,0.0,3.0,85,0.00,,BKN120,0.00,VWS V14.01,2013-03-21 07:15:00,
2013-03-21 01:20:00,34.1,30.6,29.37,NW,312,0.0,3.0,87,0.00,,BKN120,0.00,VWS V14.01,2013-03-21 07:20:00,
2013-03-21 01:25:00,33.7,30.5,29.37,NW,308,0.0,3.0,88,0.00,,BKN120,0.00,VWS V14.01,2013-03-21 07:25:00,
2013-03-21 01:30:00,33.4,30.5,29.38,NW,319,0.0,3.0,89,0.00,,BKN120,0.00,VWS V14.01,2013-03-21 07:30:00,
2013-03-21 01:35:00,33.2,30.6,29.38,NNW,342,0.0,0.0,90,0.00,,BKN120,0.00,VWS V14.01,2013-03-21 07:35:00,
2013-03-21 01:40:00,32.9,30.3,29.38,NNW,331,0.0,1.0,90,0.00,,BKN120,0.00,VWS V14.01,2013-03-21 07:40:00,
2013-03-21 01:45:00,32.8,30.2,29.39,NNW,330,0.0,1.0,90,0.00,,BKN120,0.00,VWS V14.01,2013-03-21 07:45:00,
2013-03-21 01:50:00,32.7,30.1,29.39,ESE,105,0.0,1.0,90,0.00,,BKN120,0.00,VWS V14.01,2013-03-21 07:50:00,
2013-03-21 01:55:00,32.4,29.0,29.39,North,0,0.0,2.0,87,0.00,,BKN120,0.00,VWS V14.01,2013-03-21 07:55:00,
2013-03-21 02:00:00,32.4,28.4,29.40,NNW,340,0.0,2.0,85,0.00,,BKN120,0.00,VWS V14.01,2013-03-21 08:00:00,
2013-03-21 02:05:00,32.2,27.9,29.40,NW,326,0.0,3.0,84,0.00,,BKN120,0.00,VWS V14.01,2013-03-21 08:05:00,
2013-03-21 02:10:00,32.8,23.8,29.40,NW,309,0.0,3.0,69,0.00,,BKN180,0.00,VWS V14.01,2013-03-21 08:10:00,
2013-03-21 02:15:00,33.5,23.0,29.38,NW,307,0.0,3.0,65,0.00,,BKN180,0.00,VWS V14.01,2013-03-21 08:15:00,
2013-03-21 02:20:00,33.8,23.3,29.38,NW,317,0.0,3.0,65,0.00,,BKN180,0.00,VWS V14.01,2013-03-21 08:20:00,
2013-03-21 02:25:00,33.7,23.9,29.38,NW,309,0.0,3.0,67,0.00,,BKN180,0.00,VWS V14.01,2013-03-21 08:25:00,
2013-03-21 02:30:00,33.7,24.3,29.38,NW,306,0.0,3.0,68,0.00,,BKN180,0.00,VWS V14.01,2013-03-21 08:30:00,
2013-03-21 02:35:00,33.5,25.1,29.38,NNW,330,0.0,0.0,71,0.00,,BKN180,0.00,VWS V14.01,2013-03-21 08:35:00,
2013-03-21 02:40:00,33.2,25.2,29.38,NW,318,0.0,0.0,72,0.00,,BKN180,0.00,VWS V14.01,2013-03-21 08:40:00,
2013-03-21 02:45:00,32.9,24.5,29.39,NW,319,0.0,0.0,71,0.00,,BKN180,0.00,VWS V14.01,2013-03-21 08:45:00,
2013-03-21 02:50:00,32.9,23.5,29.39,NW,311,0.0,1.0,68,0.00,,BKN180,0.00,VWS V14.01,2013-03-21 08:50:00,
2013-03-21 02:55:00,32.9,23.9,29.39,NW,311,0.0,1.0,69,0.00,,BKN180,0.00,VWS V14.01,2013-03-21 08:55:00,
2013-03-21 03:00:00,32.9,24.2,29.40,NW,307,0.0,1.0,70,0.00,,BKN180,0.00,VWS V14.01,2013-03-21 09:00:00,
2013-03-21 03:05:00,32.8,23.8,29.40,North,358,0.0,0.0,69,0.00,,BKN180,0.00,VWS V14.01,2013-03-21 09:05:00,
2013-03-21 03:10:00,32.7,24.0,29.40,North,356,0.0,0.0,70,0.00,,BKN170,0.00,VWS V14.01,2013-03-21 09:10:00,
2013-03-21 03:15:00,32.5,23.8,29.42,NNW,332,0.0,0.0,70,0.00,,BKN170,0.00,VWS V14.01,2013-03-21 09:15:00,
2013-03-21 03:20:00,32.4,23.4,29.42,NNW,332,0.0,0.0,69,0.00,,BKN170,0.00,VWS V14.01,2013-03-21 09:20:00,
2013-03-21 03:25:00,32.4,23.0,29.42,NNW,332,0.0,0.0,68,0.00,,BKN170,0.00,VWS V14.01,2013-03-21 09:25:00,
2013-03-21 03:30:00,32.4,23.0,29.42,NW,309,0.0,0.0,68,0.00,,BKN170,0.00,VWS V14.01,2013-03-21 09:30:00,
2013-03-21 03:35:00,32.4,23.0,29.42,NW,309,0.0,0.0,68,0.00,,BKN170,0.00,VWS V14.01,2013-03-21 09:35:00,
2013-03-21 03:40:00,32.2,22.5,29.42,NW,309,0.0,0.0,67,0.00,,BKN073,0.00,VWS V14.01,2013-03-21 09:40:00,
2013-03-21 03:45:00,32.2,23.2,29.42,NW,309,0.0,0.0,69,0.00,,BKN073,0.00,VWS V14.01,2013-03-21 09:45:00,
2013-03-21 03:50:00,32.1,22.8,29.42,NW,310,0.0,1.0,68,0.00,,BKN073,0.00,VWS V14.01,2013-03-21 09:50:00,
2013-03-21 03:55:00,32.2,22.1,29.42,NW,311,0.0,1.0,66,0.00,,BKN073,0.00,VWS V14.01,2013-03-21 09:55:00,
2013-03-21 04:00:00,32.4,22.3,29.42,NW,315,0.0,1.0,66,0.00,,BKN073,0.00,VWS V14.01,2013-03-21 10:00:00,
2013-03-21 04:05:00,32.4,22.0,29.42,NW,311,0.0,0.0,65,0.00,,BKN073,0.00,VWS V14.01,2013-03-21 10:05:00,
2013-03-21 04:10:00,32.5,21.7,29.42,NW,314,0.0,0.0,64,0.00,,,0.00,VWS V14.01,2013-03-21 10:10:00,
2013-03-21 04:15:00,32.5,22.1,29.44,NNW,329,0.0,0.0,65,0.00,,,0.00,VWS V14.01,2013-03-21 10:15:00,
2013-03-21 04:20:00,32.5,22.1,29.44,NNW,327,0.0,0.0,65,0.00,,,0.00,VWS V14.01,2013-03-21 10:20:00,
2013-03-21 04:25:00,32.5,22.4,29.44,NNW,327,0.0,0.0,66,0.00,,,0.00,VWS V14.01,2013-03-21 10:25:00,
2013-03-21 04:30:00,32.4,22.0,29.45,NNW,330,0.0,1.0,65,0.00,,,0.00,VWS V14.01,2013-03-21 10:30:00,
2013-03-21 04:35:00,32.5,21.7,29.45,NW,310,0.0,1.0,64,0.00,,,0.00,VWS V14.01,2013-03-21 10:35:00,
2013-03-21 04:40:00,32.5,21.7,29.45,NW,315,0.0,1.0,64,0.00,,,0.00,VWS V14.01,2013-03-21 10:40:00,
2013-03-21 04:45:00,32.5,21.3,29.44,NW,316,0.0,1.0,63,0.00,,,0.00,VWS V14.01,2013-03-21 10:45:00,
2013-03-21 04:50:00,32.5,20.9,29.44,NW,316,0.0,1.0,62,0.00,,,0.00,VWS V14.01,2013-03-21 10:50:00,
2013-03-21 04:55:00,32.7,20.8,29.44,NW,307,0.0,1.0,61,0.00,,,0.00,VWS V14.01,2013-03-21 10:55:00,
2013-03-21 05:00:00,32.5,19.8,29.45,NW,309,0.0,1.0,59,0.00,,,0.00,VWS V14.01,2013-03-21 11:00:00,
2013-03-21 05:05:00,32.7,20.0,29.45,ESE,113,0.0,0.0,59,0.00,,,0.00,VWS V14.01,2013-03-21 11:05:00,
2013-03-21 05:10:00,32.8,19.3,29.45,NW,313,0.0,1.0,57,0.00,,BKN068,0.00,VWS V14.01,2013-03-21 11:10:00,
2013-03-21 05:15:00,32.9,17.7,29.48,NNW,327,0.0,1.0,53,0.00,,BKN068,0.00,VWS V14.01,2013-03-21 11:15:00,
2013-03-21 05:20:00,33.2,17.9,29.48,NW,311,0.0,1.0,53,0.00,,BKN068,0.00,VWS V14.01,2013-03-21 11:20:00,
2013-03-21 05:25:00,33.5,17.8,29.48,NW,309,0.0,2.0,52,0.00,,BKN068,0.00,VWS V14.01,2013-03-21 11:25:00,
2013-03-21 05:30:00,33.5,16.9,29.47,NW,309,0.0,2.0,50,0.00,,BKN068,0.00,VWS V14.01,2013-03-21 11:30:00,
2013-03-21 05:35:00,33.7,14.1,29.47,WNW,299,0.0,1.0,44,0.00,,BKN068,0.00,VWS V14.01,2013-03-21 11:35:00,
2013-03-21 05:40:00,34.1,14.0,29.47,NW,308,0.0,2.0,43,0.00,,BKN068,0.00,VWS V14.01,2013-03-21 11:40:00,
2013-03-21 05:45:00,34.4,15.3,29.47,WNW,300,0.0,2.0,45,0.00,,BKN068,0.00,VWS V14.01,2013-03-21 11:45:00,
2013-03-21 05:50:00,34.6,16.9,29.47,NW,306,0.0,2.0,48,0.00,,BKN068,0.00,VWS V14.01,2013-03-21 11:50:00,
2013-03-21 05:55:00,34.3,17.1,29.47,NW,308,0.0,2.0,49,0.00,,BKN068,0.00,VWS V14.01,2013-03-21 11:55:00,
2013-03-21 06:00:00,34.0,15.4,29.48,NNW,336,0.0,3.0,46,0.00,,BKN068,0.00,VWS V14.01,2013-03-21 12:00:00,
2013-03-21 06:05:00,34.3,13.1,29.48,NW,311,0.0,1.0,41,0.00,,BKN068,0.00,VWS V14.01,2013-03-21 12:05:00,
2013-03-21 06:10:00,34.3,13.6,29.48,NW,316,0.0,2.0,42,0.00,,BKN068,0.00,VWS V14.01,2013-03-21 12:10:00,
2013-03-21 06:15:00,34.4,13.1,29.49,NW,314,0.0,2.0,41,0.00,,BKN068,0.00,VWS V14.01,2013-03-21 12:15:00,
2013-03-21 06:20:00,34.4,13.7,29.49,NW,313,1.0,2.0,42,0.00,,BKN068,0.00,VWS V14.01,2013-03-21 12:20:00,
2013-03-21 06:25:00,34.4,13.1,29.49,NW,314,0.0,2.0,41,0.00,,BKN068,0.00,VWS V14.01,2013-03-21 12:25:00,
2013-03-21 06:30:00,34.3,15.2,29.50,WNW,301,2.0,2.0,45,0.00,,BKN068,0.00,VWS V14.01,2013-03-21 12:30:00,
2013-03-21 06:35:00,34.4,13.7,29.50,NW,323,0.0,2.0,42,0.00,,BKN068,0.00,VWS V14.01,2013-03-21 12:35:00,
2013-03-21 06:40:00,34.3,13.6,29.50,NW,312,1.0,2.0,42,0.00,,BKN068,0.00,VWS V14.01,2013-03-21 12:40:00,
2013-03-21 06:45:00,34.6,12.8,29.50,NW,308,0.0,2.0,40,0.00,,BKN068,0.00,VWS V14.01,2013-03-21 12:45:00,
2013-03-21 06:50:00,34.6,11.6,29.50,NW,322,0.0,3.0,38,0.00,,BKN068,0.00,VWS V14.01,2013-03-21 12:50:00,
2013-03-21 06:55:00,34.6,13.3,29.50,NNW,337,0.0,3.0,41,0.00,,BKN068,0.00,VWS V14.01,2013-03-21 12:55:00,
2013-03-21 07:00:00,34.3,13.6,29.51,North,354,0.0,3.0,42,0.00,,BKN068,0.00,VWS V14.01,2013-03-21 13:00:00,
2013-03-21 07:05:00,34.1,12.9,29.51,NNW,345,0.0,0.0,41,0.00,,BKN068,0.00,VWS V14.01,2013-03-21 13:05:00,
2013-03-21 07:10:00,34.1,12.9,29.51,NE,41,0.0,3.0,41,0.00,,BKN068,0.00,VWS V14.01,2013-03-21 13:10:00,
2013-03-21 07:15:00,34.1,12.3,29.53,NW,310,1.0,3.0,40,0.00,,BKN068,0.00,VWS V14.01,2013-03-21 13:15:00,
2013-03-21 07:20:00,34.1,11.8,29.53,NNW,327,0.0,3.0,39,0.00,,BKN068,0.00,VWS V14.01,2013-03-21 13:20:00,
2013-03-21 07:25:00,34.0,12.8,29.53,NNW,337,0.0,3.0,41,0.00,,BKN068,0.00,VWS V14.01,2013-03-21 13:25:00,
2013-03-21 07:30:00,33.8,12.1,29.54,NNW,343,0.0,3.0,40,0.00,,BKN068,0.00,VWS V14.01,2013-03-21 13:30:00,
2013-03-21 07:35:00,33.7,13.1,29.54,WNW,297,0.0,2.0,42,0.00,,BKN068,0.00,VWS V14.01,2013-03-21 13:35:00,
2013-03-21 07:40:00,33.7,14.1,29.54,NW,321,1.0,2.0,44,0.00,,BKN068,0.00,VWS V14.01,2013-03-21 13:40:00,
2013-03-21 07:45:00,33.4,12.2,29.54,NW,317,0.0,2.0,41,0.00,,BKN068,0.00,VWS V14.01,2013-03-21 13:45:00,
2013-03-21 07:50:00,33.2,12.6,29.54,NW,323,0.0,2.0,42,0.00,,BKN068,0.00,VWS V14.01,2013-03-21 13:50:00,
2013-03-21 07:55:00,33.1,12.5,29.54,ENE,73,0.0,2.0,42,0.00,,BKN068,0.00,VWS V14.01,2013-03-21 13:55:00,
2013-03-21 08:00:00,32.9,13.9,29.54,NW,312,1.0,2.0,45,0.00,,BKN068,0.00,VWS V14.01,2013-03-21 14:00:00,
2013-03-21 08:05:00,32.8,15.3,29.54,NW,321,0.0,0.0,48,0.00,,BKN068,0.00,VWS V14.01,2013-03-21 14:05:00,
2013-03-21 08:10:00,32.8,13.3,29.54,NW,313,0.0,1.0,44,0.00,,BKN068,0.00,VWS V14.01,2013-03-21 14:10:00,
2013-03-21 08:15:00,32.8,15.3,29.55,NW,313,0.0,1.0,48,0.00,,BKN068,0.00,VWS V14.01,2013-03-21 14:15:00,
2013-03-21 08:20:00,32.5,14.5,29.55,NW,313,0.0,1.0,47,0.00,,BKN068,0.00,VWS V14.01,2013-03-21 14:20:00,
2013-03-21 08:25:00,32.4,13.9,29.55,NW,313,0.0,1.0,46,0.00,,BKN068,0.00,VWS V14.01,2013-03-21 14:25:00,
2013-03-21 08:30:00,32.4,13.4,29.56,NW,313,0.0,1.0,45,0.00,,BKN068,0.00,VWS V14.01,2013-03-21 14:30:00,
2013-03-21 08:35:00,32.5,14.0,29.56,NW,305,0.0,0.0,46,0.00,,BKN068,0.00,VWS V14.01,2013-03-21 14:35:00,
2013-03-21 08:40:00,32.7,15.7,29.56,NW,309,0.0,1.0,49,0.00,,,0.00,VWS V14.01,2013-03-21 14:40:00,
2013-03-21 08:45:00,32.8,15.3,29.55,NW,316,0.0,1.0,48,0.00,,,0.00,VWS V14.01,2013-03-21 14:45:00,
2013-03-21 08:50:00,32.7,16.6,29.55,NW,315,0.0,1.0,51,0.00,,,0.00,VWS V14.01,2013-03-21 14:50:00,
2013-03-21 08:55:00,32.5,15.5,29.55,NW,315,0.0,1.0,49,0.00,,,0.00,VWS V14.01,2013-03-21 14:55:00,
2013-03-21 09:00:00,32.5,15.9,29.55,NW,311,0.0,1.0,50,0.00,,,0.00,VWS V14.01,2013-03-21 15:00:00,
2013-03-21 09:05:00,32.5,16.9,29.55,NW,311,0.0,0.0,52,0.00,,,0.00,VWS V14.01,2013-03-21 15:05:00,
2013-03-21 09:10:00,32.5,16.4,29.55,SE,141,0.0,1.0,51,0.00,,,0.00,VWS V14.01,2013-03-21 15:10:00,
2013-03-21 09:15:00,32.5,16.9,29.57,SE,141,0.0,1.0,52,0.00,,,0.00,VWS V14.01,2013-03-21 15:15:00,
2013-03-21 09:20:00,32.7,17.5,29.57,SE,141,0.0,1.0,53,0.00,,,0.00,VWS V14.01,2013-03-21 15:20:00,
2013-03-21 09:25:00,32.7,16.6,29.57,SE,141,0.0,1.0,51,0.00,,,0.00,VWS V14.01,2013-03-21 15:25:00,
2013-03-21 09:30:00,32.8,16.2,29.58,SE,141,0.0,1.0,50,0.00,,,0.00,VWS V14.01,2013-03-21 15:30:00,
2013-03-21 09:35:00,33.1,16.0,29.58,NW,311,0.0,0.0,49,0.00,,,0.00,VWS V14.01,2013-03-21 15:35:00,
2013-03-21 09:40:00,33.2,15.6,29.58,NW,311,0.0,1.0,48,0.00,,,0.00,VWS V14.01,2013-03-21 15:40:00,
2013-03-21 09:45:00,33.5,16.9,29.57,NW,311,0.0,1.0,50,0.00,,,0.00,VWS V14.01,2013-03-21 15:45:00,
2013-03-21 09:50:00,33.5,15.9,29.57,NW,311,0.0,1.0,48,0.00,,,0.00,VWS V14.01,2013-03-21 15:50:00,
2013-03-21 09:55:00,33.7,16.6,29.57,NW,311,0.0,1.0,49,0.00,,,0.00,VWS V14.01,2013-03-21 15:55:00,
2013-03-21 10:00:00,33.8,16.7,29.59,NW,311,0.0,1.0,49,0.00,,,0.00,VWS V14.01,2013-03-21 16:00:00,
2013-03-21 10:05:00,33.8,16.7,29.59,NW,314,0.0,1.0,49,0.00,,,0.00,VWS V14.01,2013-03-21 16:05:00,
2013-03-21 10:10:00,33.7,17.0,29.59,NW,316,0.0,1.0,50,0.00,,,0.00,VWS V14.01,2013-03-21 16:10:00,
2013-03-21 10:15:00,33.7,17.5,29.60,NW,315,0.0,1.0,51,0.00,,,0.00,VWS V14.01,2013-03-21 16:15:00,
2013-03-21 10:20:00,33.7,17.0,29.60,NW,326,0.0,1.0,50,0.00,,,0.00,VWS V14.01,2013-03-21 16:20:00,
2013-03-21 10:25:00,33.8,17.6,29.60,NW,326,0.0,1.0,51,0.00,,,0.00,VWS V14.01,2013-03-21 16:25:00,
2013-03-21 10:30:00,34.1,16.5,29.60,NW,311,0.0,1.0,48,0.00,,,0.00,VWS V14.01,2013-03-21 16:30:00,
2013-03-21 10:35:00,34.3,15.2,29.60,North,0,0.0,1.0,45,0.00,,,0.00,VWS V14.01,2013-03-21 16:35:00,
2013-03-21 10:40:00,34.7,15.0,29.60,NNW,334,0.0,1.0,44,0.00,,,0.00,VWS V14.01,2013-03-21 16:40:00,
2013-03-21 10:45:00,34.9,14.7,29.60,NE,49,0.0,1.0,43,0.00,,,0.00,VWS V14.01,2013-03-21 16:45:00,
2013-03-21 10:50:00,35.0,13.1,29.60,NW,324,0.0,2.0,40,0.00,,,0.00,VWS V14.01,2013-03-21 16:50:00,
2013-03-21 10:55:00,35.3,13.4,29.60,NW,324,0.0,2.0,40,0.00,,,0.00,VWS V14.01,2013-03-21 16:55:00,
2013-03-21 11:00:00,35.3,13.4,29.60,NW,320,0.0,2.0,40,0.00,,,0.00,VWS V14.01,2013-03-21 17:00:00,
2013-03-21 11:05:00,35.3,14.5,29.60,NW,317,0.0,1.0,42,0.00,,,0.00,VWS V14.01,2013-03-21 17:05:00,
2013-03-21 11:10:00,35.2,12.7,29.60,NW,311,0.0,2.0,39,0.00,,,0.00,VWS V14.01,2013-03-21 17:10:00,
2013-03-21 11:15:00,35.2,13.9,29.62,NW,322,0.0,2.0,41,0.00,,,0.00,VWS V14.01,2013-03-21 17:15:00,
2013-03-21 11:20:00,35.3,13.4,29.62,NW,307,0.0,2.0,40,0.00,,,0.00,VWS V14.01,2013-03-21 17:20:00,
2013-03-21 11:25:00,35.5,13.6,29.62,North,11,0.0,2.0,40,0.00,,,0.00,VWS V14.01,2013-03-21 17:25:00,
2013-03-21 11:30:00,35.6,13.1,29.62,ESE,119,0.0,5.0,39,0.00,,,0.00,VWS V14.01,2013-03-21 17:30:00,
2013-03-21 11:35:00,35.8,13.9,29.62,NNW,339,0.0,2.0,40,0.00,,,0.00,VWS V14.01,2013-03-21 17:35:00,
2013-03-21 11:40:00,35.6,14.2,29.62,NW,317,1.0,2.0,41,0.00,,,0.00,VWS V14.01,2013-03-21 17:40:00,
2013-03-21 11:45:00,35.5,13.0,29.63,NW,321,0.0,3.0,39,0.00,,,0.00,VWS V14.01,2013-03-21 17:45:00,
2013-03-21 11:50:00,35.5,14.7,29.63,WNW,300,0.0,3.0,42,0.00,,,0.00,VWS V14.01,2013-03-21 17:50:00,
2013-03-21 11:55:00,35.5,16.3,29.63,WNW,300,0.0,3.0,45,0.00,,,0.00,VWS V14.01,2013-03-21 17:55:00,
2013-03-21 12:00:00,35.6,16.9,29.62,WNW,300,0.0,3.0,46,0.00,,,0.00,VWS V14.01,2013-03-21 18:00:00,
2013-03-21 12:05:00,35.6,14.8,29.62,NW,308,0.0,1.0,42,0.00,,,0.00,VWS V14.01,2013-03-21 18:05:00,
2013-03-21 12:10:00,35.6,14.8,29.62,NNW,335,0.0,1.0,42,0.00,,,0.00,VWS V14.01,2013-03-21 18:10:00,
2013-03-21 12:15:00,35.9,16.1,29.63,WNW,302,0.0,1.0,44,0.00,,,0.00,VWS V14.01,2013-03-21 18:15:00,
2013-03-21 12:20:00,36.0,17.7,29.63,WNW,302,0.0,1.0,47,0.00,,,0.00,VWS V14.01,2013-03-21 18:20:00,
2013-03-21 12:25:00,36.0,14.0,29.63,WNW,302,0.0,1.0,40,0.00,,,0.00,VWS V14.01,2013-03-21 18:25:00,
2013-03-21 12:30:00,36.3,14.9,29.64,WNW,302,0.0,1.0,41,0.00,,,0.00,VWS V14.01,2013-03-21 18:30:00,
2013-03-21 12:35:00,36.3,14.9,29.64,WNW,302,0.0,0.0,41,0.00,,,0.00,VWS V14.01,2013-03-21 18:35:00,
2013-03-21 12:40:00,36.5,12.7,29.64,NNW,342,0.0,1.0,37,0.00,,,0.00,VWS V14.01,2013-03-21 18:40:00,
2013-03-21 12:45:00,36.3,12.5,29.64,NW,315,0.0,2.0,37,0.00,,,0.00,VWS V14.01,2013-03-21 18:45:00,
2013-03-21 12:50:00,36.2,13.1,29.64,WNW,302,0.0,2.0,38,0.00,,,0.00,VWS V14.01,2013-03-21 18:50:00,
2013-03-21 12:55:00,36.0,14.6,29.64,NW,316,0.0,2.0,41,0.00,,,0.00,VWS V14.01,2013-03-21 18:55:00,
2013-03-21 13:00:00,36.0,12.9,29.65,NNW,340,0.0,2.0,38,0.00,,,0.00,VWS V14.01,2013-03-21 19:00:00,
2013-03-21 13:05:00,36.2,14.8,29.65,NW,315,0.0,0.0,41,0.00,,,0.00,VWS V14.01,2013-03-21 19:05:00,
2013-03-21 13:10:00,36.2,16.9,29.65,NW,309,0.0,1.0,45,0.00,,,0.00,VWS V14.01,2013-03-21 19:10:00,
2013-03-21 13:15:00,36.0,16.2,29.66,NW,314,0.0,1.0,44,0.00,,,0.00,VWS V14.01,2013-03-21 19:15:00,
2013-03-21 13:20:00,36.2,14.2,29.66,NW,308,0.0,1.0,40,0.00,,,0.00,VWS V14.01,2013-03-21 19:20:00,
2013-03-21 13:25:00,36.2,14.2,29.66,SSE,149,0.0,1.0,40,0.00,,,0.00,VWS V14.01,2013-03-21 19:25:00,
2013-03-21 13:30:00,36.3,13.7,29.66,NW,326,0.0,1.0,39,0.00,,,0.00,VWS V14.01,2013-03-21 19:30:00,
2013-03-21 13:35:00,36.3,15.4,29.66,NW,311,0.0,1.0,42,0.00,,,0.00,VWS V14.01,2013-03-21 19:35:00,
2013-03-21 13:40:00,36.2,13.1,29.66,NW,309,0.0,2.0,38,0.00,,,0.00,VWS V14.01,2013-03-21 19:40:00,
2013-03-21 13:45:00,36.0,13.5,29.66,NW,321,0.0,2.0,39,0.00,,,0.00,VWS V14.01,2013-03-21 19:45:00,
2013-03-21 13:50:00,36.0,14.0,29.66,NW,309,1.0,2.0,40,0.00,,,0.00,VWS V14.01,2013-03-21 19:50:00,
2013-03-21 13:55:00,36.2,13.1,29.66,NW,304,0.0,2.0,38,0.00,,,0.00,VWS V14.01,2013-03-21 19:55:00,
2013-03-21 14:00:00,36.3,13.1,29.67,NNW,334,0.0,2.0,38,0.00,,,0.00,VWS V14.01,2013-03-21 20:00:00,
2013-03-21 14:05:00,36.5,14.5,29.67,NW,321,0.0,0.0,40,0.00,,,0.00,VWS V14.01,2013-03-21 20:05:00,
2013-03-21 14:10:00,36.6,15.1,29.67,NNW,329,0.0,2.0,41,0.00,,OVC040,0.00,VWS V14.01,2013-03-21 20:10:00,
2013-03-21 14:15:00,36.8,15.3,29.67,SE,132,0.0,2.0,41,0.00,,OVC040,0.00,VWS V14.01,2013-03-21 20:15:00,
2013-03-21 14:20:00,36.9,14.9,29.67,SE,134,0.0,2.0,40,0.00,,OVC040,0.00,VWS V14.01,2013-03-21 20:20:00,
2013-03-21 14:25:00,37.0,14.9,29.67,ESE,111,0.0,2.0,40,0.00,,OVC040,0.00,VWS V14.01,2013-03-21 20:25:00,
2013-03-21 14:30:00,36.9,16.5,29.67,ESE,113,0.0,2.0,43,0.00,,OVC040,0.00,VWS V14.01,2013-03-21 20:30:00,
2013-03-21 14:35:00,36.9,15.4,29.67,NW,323,0.0,0.0,41,0.00,,OVC040,0.00,VWS V14.01,2013-03-21 20:35:00,
2013-03-21 14:40:00,36.8,14.8,29.67,NW,307,0.0,1.0,40,0.00,,OVC055,0.00,VWS V14.01,2013-03-21 20:40:00,
2013-03-21 14:45:00,36.3,16.0,29.67,NNW,329,0.0,3.0,43,0.00,,OVC055,0.00,VWS V14.01,2013-03-21 20:45:00,
2013-03-21 14:50:00,36.2,15.3,29.67,NNW,327,0.0,3.0,42,0.00,,OVC055,0.00,VWS V14.01,2013-03-21 20:50:00,
2013-03-21 14:55:00,36.3,14.9,29.67,NW,315,0.0,3.0,41,0.00,,OVC055,0.00,VWS V14.01,2013-03-21 20:55:00,
2013-03-21 15:00:00,36.2,15.9,29.68,NW,321,0.0,3.0,43,0.00,,OVC055,0.00,VWS V14.01,2013-03-21 21:00:00,
2013-03-21 15:05:00,36.3,15.4,29.68,North,0,0.0,0.0,42,0.00,,OVC055,0.00,VWS V14.01,2013-03-21 21:05:00,
2013-03-21 15:10:00,36.5,20.1,29.68,NW,319,0.0,1.0,51,0.00,,OVC055,0.00,VWS V14.01,2013-03-21 21:10:00,
2013-03-21 15:15:00,35.9,20.9,29.68,NW,318,0.0,1.0,54,0.00,,OVC055,0.00,VWS V14.01,2013-03-21 21:15:00,
2013-03-21 15:20:00,35.3,20.8,29.68,NW,311,0.0,1.0,55,0.00,,OVC055,0.00,VWS V14.01,2013-03-21 21:20:00,
2013-03-21 15:25:00,34.9,20.8,29.68,NW,319,0.0,2.0,56,0.00,,OVC055,0.00,VWS V14.01,2013-03-21 21:25:00,
2013-03-21 15:30:00,34.4,20.8,29.70,NW,307,0.0,2.0,57,0.00,,OVC055,0.00,VWS V14.01,2013-03-21 21:30:00,
2013-03-21 15:35:00,34.1,21.3,29.70,NW,309,1.0,1.0,59,0.00,,OVC055,0.00,VWS V14.01,2013-03-21 21:35:00,
2013-03-21 15:40:00,34.0,21.2,29.70,NW,319,0.0,1.0,59,0.00,,OVC055,0.00,VWS V14.01,2013-03-21 21:40:00,
2013-03-21 15:45:00,34.1,20.5,29.70,NW,319,0.0,1.0,57,0.00,,OVC055,0.00,VWS V14.01,2013-03-21 21:45:00,
2013-03-21 15:50:00,34.6,20.5,29.70,NW,319,0.0,1.0,56,0.00,,OVC055,0.00,VWS V14.01,2013-03-21 21:50:00,
2013-03-21 15:55:00,34.7,21.5,29.70,NW,319,0.0,1.0,58,0.00,,OVC055,0.00,VWS V14.01,2013-03-21 21:55:00,
2013-03-21 16:00:00,35.0,20.9,29.71,NW,317,0.0,1.0,56,0.00,,OVC055,0.00,VWS V14.01,2013-03-21 22:00:00,
2013-03-21 16:05:00,34.9,20.8,29.71,NW,317,0.0,1.0,56,0.00,,OVC055,0.00,VWS V14.01,2013-03-21 22:05:00,
2013-03-21 16:10:00,34.9,21.2,29.71,NW,317,0.0,1.0,57,0.00,,OVC050,0.00,VWS V14.01,2013-03-21 22:10:00,
2013-03-21 16:15:00,34.9,20.0,29.71,NW,317,0.0,1.0,54,0.00,,OVC050,0.00,VWS V14.01,2013-03-21 22:15:00,
2013-03-21 16:20:00,34.9,22.4,29.71,ESE,112,0.0,2.0,60,0.00,,OVC050,0.00,VWS V14.01,2013-03-21 22:20:00,
2013-03-21 16:25:00,34.6,24.1,29.71,ESE,113,0.0,2.0,65,0.00,,OVC050,0.00,VWS V14.01,2013-03-21 22:25:00,
2013-03-21 16:30:00,34.4,24.6,29.72,ESE,113,0.0,2.0,67,0.00,,OVC050,0.00,VWS V14.01,2013-03-21 22:30:00,
2013-03-21 16:35:00,34.1,24.7,29.72,SE,127,0.0,0.0,68,0.00,,OVC050,0.00,VWS V14.01,2013-03-21 22:35:00,
2013-03-21 16:40:00,33.5,24.4,29.72,SE,136,0.0,1.0,69,0.00,,OVC050,0.00,VWS V14.01,2013-03-21 22:40:00,
2013-03-21 16:45:00,32.9,24.5,29.74,SE,127,0.0,1.0,71,0.00,,OVC050,0.00,VWS V14.01,2013-03-21 22:45:00,
2013-03-21 16:50:00,32.5,24.5,29.74,ESE,109,0.0,1.0,72,0.00,,OVC050,0.00,VWS V14.01,2013-03-21 22:50:00,
2013-03-21 16:55:00,31.8,24.1,29.74,SE,133,0.0,1.0,73,0.00,,OVC050,0.00,VWS V14.01,2013-03-21 22:55:00,
2013-03-21 17:00:00,31.2,23.9,29.76,ESE,117,0.0,1.0,74,0.00,,OVC050,0.00,VWS V14.01,2013-03-21 23:00:00,
2013-03-21 17:05:00,30.9,24.2,29.76,ESE,117,0.0,0.0,76,0.00,,OVC050,0.00,VWS V14.01,2013-03-21 23:05:00,
2013-03-21 17:10:00,30.4,24.1,29.76,SE,146,0.0,2.0,77,0.00,,OVC050,0.00,VWS V14.01,2013-03-21 23:10:00,
2013-03-21 17:15:00,30.0,24.3,29.77,East,99,0.0,2.0,79,0.00,,OVC050,0.00,VWS V14.01,2013-03-21 23:15:00,
2013-03-21 17:20:00,29.5,24.1,29.77,SE,129,0.0,2.0,80,0.00,,OVC050,0.00,VWS V14.01,2013-03-21 23:20:00,
2013-03-21 17:25:00,29.3,24.2,29.77,ESE,103,0.0,2.0,81,0.00,,OVC050,0.00,VWS V14.01,2013-03-21 23:25:00,
2013-03-21 17:30:00,29.1,24.0,29.80,ESE,107,0.0,2.0,81,0.00,,OVC050,0.00,VWS V14.01,2013-03-21 23:30:00,
2013-03-21 17:35:00,29.1,24.3,29.80,ESE,104,0.0,1.0,82,0.00,,OVC050,0.00,VWS V14.01,2013-03-21 23:35:00,
2013-03-21 17:40:00,29.0,23.9,29.80,ESE,122,0.0,3.0,81,0.00,,OVC050,0.00,VWS V14.01,2013-03-21 23:40:00,
2013-03-21 17:45:00,28.7,23.9,29.81,ESE,117,0.0,3.0,82,0.00,,OVC050,0.00,VWS V14.01,2013-03-21 23:45:00,
2013-03-21 17:50:00,28.5,24.0,29.81,ESE,117,0.0,3.0,83,0.00,,OVC050,0.00,VWS V14.01,2013-03-21 23:50:00,
2013-03-21 17:55:00,28.5,24.0,29.81,ESE,115,0.0,3.0,83,0.00,,OVC050,0.00,VWS V14.01,2013-03-21 23:55:00,
2013-03-21 18:00:00,28.4,23.9,29.82,ESE,120,0.0,3.0,83,0.00,,OVC050,0.00,VWS V14.01,2013-03-22 00:00:00,
2013-03-21 18:05:00,28.2,23.7,29.82,East,87,0.0,0.0,83,0.00,,OVC050,0.00,VWS V14.01,2013-03-22 00:05:00,
2013-03-21 18:10:00,28.1,23.9,29.82,SE,129,0.0,0.0,84,0.00,,BKN110,0.00,VWS V14.01,2013-03-22 00:10:00,
2013-03-21 18:15:00,27.9,23.7,29.83,SE,129,0.0,0.0,84,0.00,,BKN110,0.00,VWS V14.01,2013-03-22 00:15:00,
2013-03-21 18:20:00,27.9,24.0,29.83,ESE,111,0.0,0.0,85,0.00,,BKN110,0.00,VWS V14.01,2013-03-22 00:20:00,
2013-03-21 18:25:00,27.8,23.9,29.83,ESE,111,0.0,0.0,85,0.00,,BKN110,0.00,VWS V14.01,2013-03-22 00:25:00,
2013-03-21 18:30:00,27.8,24.2,29.83,ESE,111,0.0,0.0,86,0.00,,BKN110,0.00,VWS V14.01,2013-03-22 00:30:00,
2013-03-21 18:35:00,27.6,24.0,29.83,ESE,110,0.0,0.0,86,0.00,,BKN110,0.00,VWS V14.01,2013-03-22 00:35:00,
2013-03-21 18:40:00,27.6,24.0,29.83,SE,132,0.0,0.0,86,0.00,,BKN110,0.00,VWS V14.01,2013-03-22 00:40:00,
2013-03-21 18:45:00,27.3,23.7,29.85,ESE,103,0.0,0.0,86,0.00,,BKN110,0.00,VWS V14.01,2013-03-22 00:45:00,
2013-03-21 18:50:00,27.3,23.7,29.85,ESE,107,0.0,1.0,86,0.00,,BKN110,0.00,VWS V14.01,2013-03-22 00:50:00,
2013-03-21 18:55:00,27.2,23.6,29.85,ESE,117,0.0,1.0,86,0.00,,BKN110,0.00,VWS V14.01,2013-03-22 00:55:00,
2013-03-21 19:00:00,26.9,23.3,29.86,ESE,120,0.0,4.0,86,0.00,,BKN110,0.00,VWS V14.01,2013-03-22 01:00:00,
2013-03-21 19:05:00,26.7,22.8,29.86,East,101,0.0,1.0,85,0.00,,BKN110,0.00,VWS V14.01,2013-03-22 01:05:00,
2013-03-21 19:10:00,26.6,22.7,29.86,ESE,107,0.0,1.0,85,0.00,,BKN110,0.00,VWS V14.01,2013-03-22 01:10:00,
2013-03-21 19:15:00,26.4,22.5,29.89,SE,124,0.0,3.0,85,0.00,,BKN110,0.00,VWS V14.01,2013-03-22 01:15:00,
2013-03-21 19:20:00,26.4,22.5,29.89,ESE,102,1.0,3.0,85,0.00,,BKN110,0.00,VWS V14.01,2013-03-22 01:20:00,
2013-03-21 19:25:00,26.3,22.4,29.89,ESE,105,0.0,3.0,85,0.00,,BKN110,0.00,VWS V14.01,2013-03-22 01:25:00,
2013-03-21 19:30:00,26.0,21.8,29.89,ESE,113,0.0,4.0,84,0.00,,BKN110,0.00,VWS V14.01,2013-03-22 01:30:00,
2013-03-21 19:35:00,25.8,21.6,29.89,ESE,112,0.0,1.0,84,0.00,,BKN110,0.00,VWS V14.01,2013-03-22 01:35:00,
2013-03-21 19:40:00,25.7,21.8,29.89,ESE,111,0.0,2.0,85,0.00,,BKN110,0.00,VWS V14.01,2013-03-22 01:40:00,
2013-03-21 19:45:00,25.7,21.8,29.90,East,96,0.0,2.0,85,0.00,,BKN110,0.00,VWS V14.01,2013-03-22 01:45:00,
2013-03-21 19:50:00,25.6,21.7,29.90,ESE,112,0.0,2.0,85,0.00,,BKN110,0.00,VWS V14.01,2013-03-22 01:50:00,
2013-03-21 19:55:00,25.3,21.1,29.90,East,89,0.0,2.0,84,0.00,,BKN110,0.00,VWS V14.01,2013-03-22 01:55:00,
2013-03-21 20:00:00,25.1,21.0,29.90,ENE,65,0.0,3.0,84,0.00,,BKN110,0.00,VWS V14.01,2013-03-22 02:00:00,
2013-03-21 20:05:00,24.8,20.7,29.90,East,96,0.0,1.0,84,0.00,,BKN110,0.00,VWS V14.01,2013-03-22 02:05:00,
2013-03-21 20:10:00,24.8,20.7,29.90,SE,126,0.0,1.0,84,0.00,,BKN110,0.00,VWS V14.01,2013-03-22 02:10:00,
2013-03-21 20:15:00,24.7,20.3,29.91,SE,136,0.0,2.0,83,0.00,,BKN110,0.00,VWS V14.01,2013-03-22 02:15:00,
2013-03-21 20:20:00,24.5,20.1,29.91,ESE,115,0.0,6.0,83,0.00,,BKN110,0.00,VWS V14.01,2013-03-22 02:20:00,
2013-03-21 20:25:00,24.5,20.1,29.91,ESE,106,0.0,6.0,83,0.00,,BKN110,0.00,VWS V14.01,2013-03-22 02:25:00,
2013-03-21 20:30:00,24.5,19.8,29.91,ESE,116,0.0,6.0,82,0.00,,BKN110,0.00,VWS V14.01,2013-03-22 02:30:00,
2013-03-21 20:35:00,24.4,19.7,29.91,SW,231,0.0,2.0,82,0.00,,BKN110,0.00,VWS V14.01,2013-03-22 02:35:00,
2013-03-21 20:40:00,24.4,19.7,29.91,ESE,104,0.0,2.0,82,0.00,,BKN077,0.00,VWS V14.01,2013-03-22 02:40:00,
2013-03-21 20:45:00,24.2,19.5,29.93,ESE,106,0.0,4.0,82,0.00,,BKN077,0.00,VWS V14.01,2013-03-22 02:45:00,
2013-03-21 20:50:00,24.2,19.8,29.93,ESE,106,0.0,4.0,83,0.00,,BKN077,0.00,VWS V14.01,2013-03-22 02:50:00,
2013-03-21 20:55:00,24.1,19.7,29.93,ESE,122,0.0,5.0,83,0.00,,BKN077,0.00,VWS V14.01,2013-03-22 02:55:00,
2013-03-21 21:00:00,24.1,19.7,29.93,ESE,116,0.0,5.0,83,0.00,,BKN077,0.00,VWS V14.01,2013-03-22 03:00:00,
2013-03-21 21:05:00,23.9,19.5,29.93,ESE,105,0.0,2.0,83,0.00,,BKN077,0.00,VWS V14.01,2013-03-22 03:05:00,
2013-03-21 21:10:00,23.8,19.1,29.93,ESE,110,0.0,2.0,82,0.00,,BKN077,0.00,VWS V14.01,2013-03-22 03:10:00,
2013-03-21 21:15:00,23.6,18.6,29.93,ESE,112,2.0,2.0,81,0.00,,BKN077,0.00,VWS V14.01,2013-03-22 03:15:00,
2013-03-21 21:20:00,23.6,18.6,29.93,ESE,112,0.0,2.0,81,0.00,,BKN077,0.00,VWS V14.01,2013-03-22 03:20:00,
2013-03-21 21:25:00,23.6,18.6,29.93,ESE,115,0.0,2.0,81,0.00,,BKN077,0.00,VWS V14.01,2013-03-22 03:25:00,
2013-03-21 21:30:00,23.6,18.9,29.94,SE,129,0.0,2.0,82,0.00,,BKN077,0.00,VWS V14.01,2013-03-22 03:30:00,
2013-03-21 21:35:00,23.6,18.9,29.94,ESE,122,0.0,1.0,82,0.00,,BKN077,0.00,VWS V14.01,2013-03-22 03:35:00,
2013-03-21 21:40:00,23.6,18.9,29.94,East,93,0.0,1.0,82,0.00,,BKN077,0.00,VWS V14.01,2013-03-22 03:40:00,
2013-03-21 21:45:00,23.5,18.8,29.94,SSE,166,0.0,3.0,82,0.00,,BKN077,0.00,VWS V14.01,2013-03-22 03:45:00,
2013-03-21 21:50:00,23.3,18.6,29.94,ESE,111,0.0,3.0,82,0.00,,BKN077,0.00,VWS V14.01,2013-03-22 03:50:00,
2013-03-21 21:55:00,23.2,18.5,29.94,East,101,0.0,3.0,82,0.00,,BKN077,0.00,VWS V14.01,2013-03-22 03:55:00,
2013-03-21 22:00:00,23.2,18.5,29.95,SSE,166,1.0,3.0,82,0.00,,BKN077,0.00,VWS V14.01,2013-03-22 04:00:00,
2013-03-21 22:05:00,23.0,18.3,29.95,ESE,106,0.0,1.0,82,0.00,,BKN077,0.00,VWS V14.01,2013-03-22 04:05:00,
2013-03-21 22:10:00,23.0,18.3,29.95,ESE,105,0.0,1.0,82,0.00,,BKN140,0.00,VWS V14.01,2013-03-22 04:10:00,
2013-03-21 22:15:00,23.0,18.3,29.95,ESE,109,0.0,1.0,82,0.00,,BKN140,0.00,VWS V14.01,2013-03-22 04:15:00,
2013-03-21 22:20:00,22.9,18.2,29.95,SE,136,0.0,1.0,82,0.00,,BKN140,0.00,VWS V14.01,2013-03-22 04:20:00,
2013-03-21 22:25:00,22.9,18.5,29.95,ESE,111,0.0,1.0,83,0.00,,BKN140,0.00,VWS V14.01,2013-03-22 04:25:00,
2013-03-21 22:30:00,22.9,18.5,29.96,ESE,110,0.0,1.0,83,0.00,,BKN140,0.00,VWS V14.01,2013-03-22 04:30:00,
2013-03-21 22:35:00,22.9,18.2,29.96,ESE,108,0.0,0.0,82,0.00,,BKN140,0.00,VWS V14.01,2013-03-22 04:35:00,
2013-03-21 22:40:00,22.9,18.2,29.96,SSE,150,0.0,1.0,82,0.00,,BKN140,0.00,VWS V14.01,2013-03-22 04:40:00,
2013-03-21 22:45:00,22.7,18.0,29.96,NE,55,0.0,2.0,82,0.00,,BKN140,0.00,VWS V14.01,2013-03-22 04:45:00,
2013-03-21 22:50:00,22.7,18.0,29.96,ESE,108,0.0,2.0,82,0.00,,BKN140,0.00,VWS V14.01,2013-03-22 04:50:00,
2013-03-21 22:55:00,22.7,18.0,29.96,South,187,0.0,2.0,82,0.00,,BKN140,0.00,VWS V14.01,2013-03-22 04:55:00,
2013-03-21 23:00:00,22.7,18.0,29.96,ESE,114,0.0,2.0,82,0.00,,BKN140,0.00,VWS V14.01,2013-03-22 05:00:00,
2013-03-21 23:05:00,22.7,18.0,29.96,ESE,105,0.0,0.0,82,0.00,,SKC,0.00,VWS V14.01,2013-03-22 05:05:00,
2013-03-21 23:10:00,22.7,18.0,29.96,SE,132,0.0,2.0,82,0.00,,SKC,0.00,VWS V14.01,2013-03-22 05:10:00,
2013-03-21 23:15:00,22.7,18.0,29.96,ESE,108,0.0,2.0,82,0.00,,SKC,0.00,VWS V14.01,2013-03-22 05:15:00,
2013-03-21 23:20:00,22.5,18.1,29.96,ESE,110,0.0,2.0,83,0.00,,SKC,0.00,VWS V14.01,2013-03-22 05:20:00,
2013-03-21 23:25:00,22.5,18.1,29.96,ESE,108,0.0,2.0,83,0.00,,SKC,0.00,VWS V14.01,2013-03-22 05:25:00,
2013-03-21 23:30:00,22.5,18.1,29.97,ESE,108,0.0,2.0,83,0.00,,SKC,0.00,VWS V14.01,2013-03-22 05:30:00,
2013-03-21 23:35:00,22.4,17.8,29.97,SE,125,0.0,1.0,82,0.00,,SKC,0.00,VWS V14.01,2013-03-22 05:35:00,
2013-03-21 23:40:00,22.2,17.5,29.97,ESE,117,0.0,1.0,82,0.00,,SKC,0.00,VWS V14.01,2013-03-22 05:40:00,
2013-03-21 23:45:00,22.2,17.8,29.98,ESE,120,0.0,1.0,83,0.00,,SKC,0.00,VWS V14.01,2013-03-22 05:45:00,
2013-03-21 23:50:00,22.2,17.8,29.98,ESE,108,0.0,1.0,83,0.00,,SKC,0.00,VWS V14.01,2013-03-22 05:50:00,
2013-03-21 23:55:00,22.1,17.7,29.98,ESE,120,0.0,2.0,83,0.00,,SKC,0.00,VWS V14.01,2013-03-22 05:55:00,